Location: Brezje
(46.3500°N, 14.9667°E)
Time: 11:50:53
(UTC+00:00)

Daily predictions for brighter satellites

Satellite Brightness Start Highest point End
(mag) Time Altitude Azimuth Time Altitude Azimuth Time Altitude Azimuth
Cosmos 2278 Rocket 3.3 16:24:35 10° SSE 16:29:02 24° ESE 16:33:30 10° NE
Okean-O 4.0 16:27:05 10° ESE 16:30:11 19° ENE 16:33:18 10° NNE
CORIOLIS 4.2 16:27:53 10° SSE 16:33:16 90° SSE 16:38:41 10° NNW
CZ-2C R/B 3.7 16:30:02 10° SE 16:35:07 40° ENE 16:40:27 10° N
NOSS 2-1 (E) 3.0 16:32:05 10° SSW 16:35:22 62° SE 16:38:47 10° NE
Cosmos 1346 Rocket 4.4 16:33:30 10° ESE 16:35:48 15° E 16:38:07 10° NE
Cosmos 1340 3.3 16:32:25 10° SSE 16:35:49 34° E 16:39:14 10° NNE
COSMOS 2455 4.0 16:30:23 10° WSW 16:36:03 41° NW 16:41:45 10° NNE
CZ-4B R/B 3.4 16:31:03 10° SSE 16:36:39 83° WSW 16:42:23 10° NNW
SMAP 3.7 16:36:30 10° S 16:41:06 63° W 16:45:44 10° NNW
Cosmos 2058 Rocket 4.3 16:41:33 10° NNW 16:45:54 49° W 16:50:15 10° SSW
Cosmos 1455 2.6 16:44:03 10° NNW 16:47:53 70° W 16:51:42 10° S
Cosmos 405 3.6 16:45:04 10° N 16:48:19 34° ENE 16:51:33 10° SE
ARGOS 4.2 16:44:20 10° ESE 16:48:28 23° ENE 16:52:38 10° N
Cosmos 1626 Rocket 3.5 16:45:37 10° S 16:50:00 77° E 16:54:29 10° NNE
Cosmos 1092 Rocket 4.0 16:44:44 10° S 16:50:46 60° E 16:56:48 10° NNE
Cosmos 1898 Rocket 3.5 16:48:13 10° SSW 16:53:27 76° ESE 16:58:41 10° NNE
CZ-2C R/B 4.1 16:53:53 10° NE 16:57:20 16° E 17:00:47 10° SE
TELKOM 3 3.6 16:55:21 10° WNW 16:57:22 33° N 16:58:27 20° ENE
Cosmos 1680 Rocket 3.9 16:53:24 10° NNW 16:58:37 67° WSW 17:03:45 10° S
Nadezhda 4 Rocket 4.2 16:53:21 10° SSW 16:59:34 75° W 17:05:45 10° N
Cosmos 1328 3.7 16:58:19 10° S 17:02:16 64° E 17:06:13 10° NNE
CZ-4B R/B 1.2 17:01:21 10° NNE 17:04:39 70° ESE 17:07:50 10° S
CZ-2D R/B 3.1 17:01:15 10° SSE 17:05:04 69° ENE 17:08:54 10° N
MOS 1 Rocket 3.2 17:02:10 10° NNE 17:06:22 54° E 17:10:38 10° S
Meteor 1-11 4.4 17:03:05 10° SSE 17:08:31 50° E 17:13:55 10° NNE
Meteor 2-8 Rocket 4.4 17:02:50 10° N 17:08:58 75° E 17:15:05 10° SSE
Cosmos-2242 3.2 17:05:50 10° N 17:09:59 46° ENE 17:14:08 10° SSE
NOSS 3-1 (C) 4.4 17:05:35 10° NW 17:13:06 72° SW 17:21:48 10° SSE
COSMO-SKYMED 1 2.5 17:09:23 10° NNE 17:13:45 80° ESE 17:18:06 10° S
Cosmos 1937 Rocket 3.5 17:10:48 10° SSW 17:16:07 86° ESE 17:21:29 10° NNE
BREEZE-M DEB (TANK) 2.0 17:14:15 10° WNW 17:16:23 49° NNE 17:17:14 31° ENE
Cosmos 1758 Rocket 3.6 17:12:20 10° S 17:16:43 60° E 17:21:09 10° NNE
Cosmos 2098 Rocket 4.4 17:10:05 10° S 17:17:24 66° E 17:24:29 10° NNE
USA 290 2.0 17:19:01 10° NNW 17:22:13 73° ENE 17:25:23 10° SSE
NOSS 2-1 (C) 4.2 17:21:31 10° WSW 17:24:37 35° NW 17:27:19 14° NNE
CZ-4 R/B 4.5 17:20:55 10° SSE 17:25:03 82° WSW 17:29:15 10° NNW
Cosmos 1833 Rocket 2.6 17:20:36 10° NNW 17:26:16 84° ENE 17:31:53 10° SSE
H-2A R/B 2.0 17:22:27 10° SSE 17:27:26 62° ENE 17:32:35 10° N
Cosmos 1939 Rocket 4.3 17:26:03 10° SSW 17:29:53 40° W 17:33:43 10° NNW
Helios 1A Rocket 3.1 17:26:03 10° SE 17:30:03 49° ENE 17:34:04 10° N
NOSS 2-1 (D) 4.4 17:27:34 10° WSW 17:30:35 31° NW 17:33:06 14° NNE
H-2A R/B 4.0 17:26:54 10° N 17:30:43 30° WNW 17:34:27 10° SW
Cosmos 2344 4.4 17:23:46 10° NW 17:33:09 87° NE 17:46:22 10° SE
Cosmos 1602 Rocket 4.5 17:29:23 10° SSW 17:33:37 50° WNW 17:37:55 10° N
USA 229 DEB 4.2 17:27:15 10° NW 17:34:33 71° SW 17:42:12 10° SSE
USA 229 4.2 17:27:22 10° NW 17:34:40 71° SW 17:42:20 10° SSE
Cosmos 2026 Rocket 4.0 17:28:35 10° S 17:34:44 84° W 17:41:02 10° N
CZ-3B R/B 2.4 17:32:50 10° WNW 17:35:43 80° SW 17:45:03 10° SE
SJ 16-02 3.9 17:34:28 10° W 17:37:29 18° NW 17:40:31 10° NNW
YAOGAN 1 2.4 17:34:45 10° SSE 17:39:04 81° ENE 17:43:25 10° NNW
Cosmos 1417 Rocket 4.4 17:33:19 10° N 17:39:31 63° ENE 17:45:45 10° SSE
Meteor 2-15 Rocket 4.4 17:33:29 10° N 17:39:40 72° E 17:45:48 10° SSE
SJ-11-01 4.1 17:36:12 10° SSE 17:40:52 73° ENE 17:45:32 10° N
Cosmos 1689 Rocket 1.7 17:41:34 74° E 17:41:38 74° ESE 17:44:27 10° S
Cosmos 1553 Rocket 3.9 17:36:19 10° N 17:42:45 76° E 17:49:02 10° SSE
Aureole 3 Rocket 3.5 17:40:10 10° NNW 17:43:22 51° W 17:47:20 10° S
COSMOS 2406 3.7 17:39:51 10° NNW 17:45:34 63° WSW 17:51:14 10° S
Cosmos 2082 Rocket 2.1 17:40:23 10° NNW 17:46:07 68° ENE 17:51:40 11° SE
HJ-1C 3.4 17:47:04 57° NE 17:47:04 57° NE 17:50:05 10° N
Cosmos 1825 Rocket 3.5 17:44:12 10° S 17:48:35 86° W 17:53:02 10° N
Meteor 1-27 4.1 17:43:58 10° N 17:49:36 82° ENE 17:55:09 10° SSE
NOSS 3-1 (A) 4.4 17:42:43 10° NW 17:50:15 68° WSW 17:58:55 10° SSE
X-37B 1.7 17:48:04 10° W 17:51:05 37° SSW 17:51:36 34° S
deb Kosmos-1763 3.8 17:49:04 10° NNW 17:52:40 71° ENE 17:52:52 69° E
ISS -2.7 17:50:54 10° WNW 17:53:50 33° N 17:53:50 33° N
ATLAS 2AS CENTAUR R/B 4.4 17:52:04 10° NW 17:57:43 21° N 18:00:55 16° NE
CZ-4 R/B 2.2 17:54:54 10° S 17:58:50 50° W 18:02:43 10° NNW
ATLAS 5 CENTAUR R/B 4.2 17:58:12 10° NNW 17:59:41 11° N 18:00:57 10° NNE
Iridium 4 Rocket 4.4 17:55:31 10° NNW 18:00:42 49° W 18:05:25 10° SSW
Cosmos 2315 Rocket 4.3 17:55:15 10° N 18:01:05 40° ENE 18:01:36 39° E
ERS-2 3.0 17:58:38 12° N 18:01:48 49° WNW 18:05:18 10° SSW
CSL-04 Rocket 3.6 17:57:36 10° SSE 18:03:02 82° ENE 18:08:36 10° NNW
Okean-O 3.4 18:01:59 10° S 18:06:18 52° W 18:10:39 10° NNW
USA 234 4.1 18:05:52 28° NE 18:08:10 36° N 18:14:02 10° NW
Ariane Rocket 4.5 18:11:25 22° NNE 18:11:25 22° NNE 18:13:34 10° N
S3M 3.8 18:03:04 10° N 18:09:13 84° E 18:15:22 10° S
CZ-4C R/B 4.2 18:05:43 10° NNW 18:10:21 20° NNE 18:11:46 19° NNE
Cosmos 1346 Rocket 3.9 18:07:59 10° SSW 18:11:46 44° WNW 18:15:11 12° N
Cosmos 1655 Rocket 3.8 18:05:40 10° S 18:11:51 75° E 18:18:04 10° NNE
Cosmos 2278 Rocket 2.7 18:07:06 10° SW 18:12:41 57° WNW 18:17:11 16° NNE
Cosmos 1953 Rocket 3.7 18:10:46 10° SSW 18:15:06 69° W 18:17:57 21° N
Cosmos 2292 Rocket 3.6 18:15:02 10° SSW 18:19:54 72° W 18:20:40 55° NNW
Cosmos 44 Rocket 3.2 18:18:03 10° SSW 18:22:59 87° SE 18:23:19 78° NE
ARGOS 3.7 18:23:04 10° S 18:28:20 58° W 18:33:40 10° NNW
Meteor 2-2 Rocket 4.2 18:24:48 10° N 18:30:48 86° E 18:34:20 27° SSE
Cosmos 1869 4.3 18:27:19 10° NNW 18:30:11 42° NW 18:30:11 42° NW
NOSS 2-2 (D) 4.4 18:27:42 10° NW 18:33:05 68° NE 18:33:29 66° ENE
CZ-2C R/B 2.7 18:33:45 17° N 18:38:14 80° WNW 18:43:51 10° SSW
Cosmos 494 Rocket 4.0 18:37:39 10° NNW 18:42:30 73° WNW 18:42:30 73° WNW
Cosmos 2150 Rocket 4.3 18:40:15 10° SSW 18:45:21 62° WNW 18:45:58 57° NNW
Cosmos 2297 4.3 18:47:28 10° SSW 18:51:23 47° SSW 18:51:23 47° SSW
Cosmos 2082 Rocket 4.5 19:25:33 10° NW 19:29:37 20° W 19:33:39 10° SW
USA 234 4.4 19:53:12 35° NW 19:53:12 35° NW 19:56:55 10° NW
ATLAS 2AS CENTAUR R/B 4.3 19:44:20 10° NNW 19:48:21 26° N 19:48:21 26° N
CZ-4C R/B 4.4 19:54:13 10° NNW 19:56:58 24° NNW 19:56:58 24° NNW
